Volver al catálogo

STARLINK-1805

ActivoComunicacionesVLEO
NORAD 46705·PAYLOAD·🇺🇸 United States

Lanzado Oct 18, 2020 desde Cape Canaveral Space Force Station

Loading…

Próximos Pases (próximas 24 horas)

TLE

ActualizadoSource: CelesTrak SupGP

Época: Sep 14, 2026, 21:53 UTC

1 46705C 20073AM  26257.91229167  .06177000  00000+0  14500-2 0  2572
2 46705  53.0233  22.1939 0011742 324.9882   1.3035 16.28719734    18

Sigue STARLINK-1805 en tiempo real con AllMySat

Download on the App Store